Home   Weather   Omaha   Past weeks

Flag for USA Past Weather in Omaha, Nebraska, USA — Yesterday and Last 2 Weeks

Now
73 °F

Sunny.


Feels Like: 75 °F
Forecast: 41 / 71 °F
Wind: 10 mph from South

Location: Millard Airport

Current Time: Apr 23, 2017 at 6:44:02 pm

Latest Report: Apr 23, 2017 at 6:15 pm


Visibility: 10 mi

Pressure: 29.93 "Hg

Humidity: 22%

Dew Point: 32 °F

Location of OmahaLocation

Past Weather in Omaha — Graph

°F

Omaha Temperature Yesterday

Maximum temperature yesterday: 68 °F (at 4:55 pm)
Minimum temperature yesterday: 44 °F (at 5:55 am)
Average temperature yesterday: 57 °F

High & Low Weather Summary for the Past Weeks

 TemperatureHumidityPressure
High82 °F (Apr 19, 4:15 pm)97% (Apr 13, 5:55 am)30.35 "Hg (Apr 13, 5:55 am)
Low32 °F (Apr 11, 6:55 am)21% (Apr 23, 4:15 pm)29.46 "Hg (Apr 9, 2:55 pm)
Average60 °F68%30.02 "Hg
* Reported Apr 8 5:15 pm — Apr 23 5:35 pm, Omaha, Weather by CustomWeather, © 2017

Note: Actual official high and low records may vary slightly from our data, if they occured in-between our weather recording intervals... More about our weather records

Advertising

Omaha Weather History for the Previous 24 Hours

Scroll right to see more
 ConditionsComfort  
Time TempWeatherWind HumidityBarometerVisibility
5:35 pm
Sun, Apr 23
73 °FSunny.14 mph22%29.95 "Hg10 mi
4:55 pm73 °FSunny.10 mph22%29.96 "Hg10 mi
4:35 pm73 °FSunny.10 mph21%29.97 "Hg10 mi
4:15 pm73 °FSunny.12 mph21%29.98 "Hg10 mi
3:55 pm72 °FSunny.12 mph23%29.98 "Hg10 mi
3:35 pm73 °FSunny.18 mph23%30.00 "Hg10 mi
3:15 pm72 °FSunny.10 mph23%30.01 "Hg10 mi
2:55 pm72 °FSunny.12 mph22%30.03 "Hg10 mi
2:35 pm71 °FSunny.13 mph22%30.03 "Hg10 mi
1:55 pm70 °FSunny.10 mph22%30.05 "Hg10 mi
1:35 pm70 °FSunny.14 mph24%30.07 "Hg10 mi
1:15 pm70 °FSunny.12 mph24%30.09 "Hg10 mi
12:55 pm69 °FSunny.10 mph26%30.10 "Hg10 mi
12:35 pm68 °FSunny.9 mph26%30.11 "Hg10 mi
12:15 pm67 °FSunny.5 mph27%30.11 "Hg10 mi
11:55 am66 °FSunny.5 mph28%30.13 "Hg10 mi
11:35 am66 °FSunny.12 mph31%30.13 "Hg10 mi
10:55 am65 °FSunny.9 mph31%30.14 "Hg10 mi
10:15 am63 °FSunny.6 mph34%30.14 "Hg10 mi
9:55 am62 °FSunny.3 mph43%30.15 "Hg10 mi
9:35 am59 °FSunny.No wind54%30.15 "Hg10 mi
9:15 am56 °FSunny.No wind63%30.16 "Hg10 mi
8:55 am52 °FSunny.No wind72%30.16 "Hg10 mi
8:15 am47 °FSunny.3 mph84%30.17 "Hg10 mi
7:55 am44 °FSunny.No wind93%30.18 "Hg10 mi
7:35 am41 °FSunny.No wind94%30.18 "Hg10 mi
7:15 am39 °FSunny.No wind95%30.18 "Hg10 mi
6:55 am39 °FFog.No wind96%30.18 "Hg5 mi
6:35 am39 °FFog.No wind95%30.17 "Hg5 mi
6:15 am39 °FClear.No wind95%30.17 "Hg10 mi
5:55 am39 °FClear.No wind95%30.17 "Hg10 mi
5:35 am40 °FClear.No wind95%30.17 "Hg10 mi
5:15 am40 °FClear.No wind93%30.17 "Hg7 mi
4:55 am41 °FClear.No wind91%30.17 "Hg10 mi
4:35 am41 °FClear.No wind92%30.18 "Hg10 mi
4:15 am41 °FClear.No wind95%30.17 "Hg7 mi
3:55 am42 °FClear.No wind95%30.17 "Hg10 mi
3:35 am42 °FClear.No wind93%30.17 "Hg10 mi
3:15 am42 °FClear.No wind93%30.17 "Hg10 mi
2:55 am43 °FClear.No wind92%30.17 "Hg10 mi
2:15 am44 °FClear.No wind90%30.18 "Hg10 mi
1:55 am44 °FClear.No wind87%30.19 "Hg10 mi
1:35 am45 °FClear.No wind87%30.20 "Hg10 mi
1:15 am46 °FClear.No wind79%30.20 "Hg10 mi
12:55 am46 °FClear.No wind76%30.20 "Hg10 mi
12:35 am46 °FClear.No wind78%30.20 "Hg10 mi
12:15 am47 °FClear.No wind76%30.20 "Hg10 mi
11:55 pm
Sat, Apr 22
47 °FClear.No wind76%30.19 "Hg10 mi
11:35 pm48 °FClear.No wind72%30.20 "Hg10 mi
10:55 pm51 °FClear.No wind63%30.21 "Hg10 mi
10:35 pm52 °FClear.No wind60%30.21 "Hg10 mi
10:15 pm53 °FClear.No wind59%30.21 "Hg10 mi
9:55 pm54 °FClear.No wind53%30.20 "Hg10 mi
9:35 pm55 °FClear.No wind48%30.20 "Hg10 mi
8:55 pm58 °FClear.No wind43%30.18 "Hg10 mi
8:35 pm60 °FClear.No wind35%30.18 "Hg10 mi
8:15 pm64 °FClear.No wind29%30.18 "Hg10 mi
7:55 pm65 °FSunny.No wind28%30.18 "Hg10 mi
7:35 pm66 °FSunny.3 mph29%30.18 "Hg10 mi
7:15 pm67 °FSunny.3 mph30%30.18 "Hg10 mi
6:55 pm67 °FSunny.6 mph30%30.18 "Hg10 mi
6:35 pm67 °FSunny.5 mph27%30.18 "Hg10 mi
6:15 pm67 °FSunny.No wind27%30.18 "Hg10 mi
Weather by CustomWeather, © 2017

See weather overviewHow to use our weather pages